Time,TemperatureF,DewpointF,PressureIn,WindDirection,WindDirectionDegrees,WindSpeedMPH,WindSpeedGustMPH,Humidity,HourlyPrecipIn,Conditions,Clouds,dailyrainin,SoftwareType,DateUTC
2013-02-19 00:03:00,41.4,33.4,0.00,North,0,0.0,0.0,73,0.00,,,-99.99,pyweather 0.1,2013-02-19 08:03:00,
2013-02-19 00:11:00,41.4,33.4,0.00,North,0,0.0,0.0,73,0.00,,,-99.99,pyweather 0.1,2013-02-19 08:11:00,
2013-02-19 00:19:00,41.2,33.2,0.00,North,0,0.0,0.0,73,0.00,,,-99.99,pyweather 0.1,2013-02-19 08:19:00,
2013-02-19 00:27:00,41.2,33.2,0.00,North,0,0.0,0.0,73,0.00,,,-99.99,pyweather 0.1,2013-02-19 08:27:00,
2013-02-19 00:35:00,41.2,33.2,0.00,North,0,0.0,0.0,73,0.00,,,-99.99,pyweather 0.1,2013-02-19 08:35:00,
2013-02-19 00:43:00,41.2,33.2,0.00,North,0,0.0,0.0,73,0.00,,,-99.99,pyweather 0.1,2013-02-19 08:43:00,
2013-02-19 00:51:00,41.2,33.2,0.00,North,0,0.0,0.0,73,0.00,,,-99.99,pyweather 0.1,2013-02-19 08:51:00,
2013-02-19 00:59:00,41.2,33.2,0.00,North,0,0.0,0.0,73,0.00,,,-99.99,pyweather 0.1,2013-02-19 08:59:00,
2013-02-19 01:07:00,41.0,33.4,0.00,North,0,0.0,0.0,74,0.00,,,-99.99,pyweather 0.1,2013-02-19 09:07:00,
2013-02-19 01:15:00,41.0,33.4,0.00,North,0,0.0,0.0,74,0.00,,,-99.99,pyweather 0.1,2013-02-19 09:15:00,
2013-02-19 01:23:00,41.2,33.9,0.00,North,0,0.0,0.0,75,0.00,,,-99.99,pyweather 0.1,2013-02-19 09:23:00,
2013-02-19 01:31:00,41.2,33.9,0.00,North,0,0.0,0.0,75,0.00,,,-99.99,pyweather 0.1,2013-02-19 09:31:00,
2013-02-19 01:39:00,41.0,33.7,0.00,North,0,0.0,0.0,75,0.00,,,-99.99,pyweather 0.1,2013-02-19 09:39:00,
2013-02-19 01:47:00,41.0,33.7,0.00,North,0,0.0,0.0,75,0.00,,,-99.99,pyweather 0.1,2013-02-19 09:47:00,
2013-02-19 01:55:00,41.0,33.7,0.00,North,0,0.0,0.0,75,0.00,,,-99.99,pyweather 0.1,2013-02-19 09:55:00,
2013-02-19 02:03:00,41.0,33.7,0.00,North,0,0.0,0.0,75,0.00,,,-99.99,pyweather 0.1,2013-02-19 10:03:00,
2013-02-19 02:11:00,41.0,33.7,0.00,North,0,0.0,0.0,75,0.00,,,-99.99,pyweather 0.1,2013-02-19 10:11:00,
2013-02-19 02:27:00,40.8,33.5,0.00,North,0,0.0,0.0,75,0.00,,,-99.99,pyweather 0.1,2013-02-19 10:27:00,
2013-02-19 02:35:00,40.6,33.3,0.00,North,0,0.0,0.0,75,0.00,,,-99.99,pyweather 0.1,2013-02-19 10:35:00,
2013-02-19 02:43:00,40.6,33.3,0.00,North,0,0.0,0.0,75,0.00,,,-99.99,pyweather 0.1,2013-02-19 10:43:00,
2013-02-19 02:51:00,40.5,33.2,0.00,North,0,0.0,0.0,75,0.00,,,-99.99,pyweather 0.1,2013-02-19 10:51:00,
2013-02-19 03:00:00,40.3,33.0,0.00,North,0,0.0,0.0,75,0.00,,,-99.99,pyweather 0.1,2013-02-19 11:00:00,
2013-02-19 03:08:00,40.3,33.3,0.00,North,0,0.0,0.0,76,0.00,,,-99.99,pyweather 0.1,2013-02-19 11:08:00,
2013-02-19 03:16:00,40.1,33.2,0.00,North,0,0.0,0.0,76,0.00,,,-99.99,pyweather 0.1,2013-02-19 11:16:00,
2013-02-19 03:24:00,39.9,33.0,0.00,North,0,0.0,0.0,76,0.00,,,-99.99,pyweather 0.1,2013-02-19 11:24:00,
2013-02-19 03:40:00,39.6,32.6,0.00,North,0,0.0,0.0,76,0.00,,,-99.99,pyweather 0.1,2013-02-19 11:40:00,
2013-02-19 03:48:00,39.4,32.5,0.00,North,0,0.0,0.0,76,0.00,,,-99.99,pyweather 0.1,2013-02-19 11:48:00,
2013-02-19 03:56:00,39.4,32.5,0.00,North,0,0.0,0.0,76,0.00,,,-99.99,pyweather 0.1,2013-02-19 11:56:00,
2013-02-19 04:04:00,39.2,32.3,0.00,North,0,0.0,0.0,76,0.00,,,-99.99,pyweather 0.1,2013-02-19 12:04:00,
2013-02-19 04:12:00,39.2,32.6,0.00,North,0,0.0,0.0,77,0.00,,,-99.99,pyweather 0.1,2013-02-19 12:12:00,
2013-02-19 04:20:00,38.8,32.3,0.00,North,0,0.0,0.0,77,0.00,,,-99.99,pyweather 0.1,2013-02-19 12:20:00,
2013-02-19 04:28:00,38.7,32.1,0.00,North,0,0.0,0.0,77,0.00,,,-99.99,pyweather 0.1,2013-02-19 12:28:00,
2013-02-19 04:36:00,38.3,31.7,0.00,North,0,0.0,0.0,77,0.00,,,-99.99,pyweather 0.1,2013-02-19 12:36:00,
2013-02-19 04:44:00,38.1,31.6,0.00,North,0,0.0,0.0,77,0.00,,,-99.99,pyweather 0.1,2013-02-19 12:44:00,
2013-02-19 04:52:00,37.9,31.4,0.00,North,0,0.0,0.0,77,0.00,,,-99.99,pyweather 0.1,2013-02-19 12:52:00,
2013-02-19 05:00:00,37.9,31.7,0.00,North,0,0.0,0.0,78,0.00,,,-99.99,pyweather 0.1,2013-02-19 13:00:00,
2013-02-19 05:08:00,37.9,31.7,0.00,North,0,0.0,0.0,78,0.00,,,-99.99,pyweather 0.1,2013-02-19 13:08:00,
2013-02-19 05:16:00,37.9,31.7,0.00,North,0,0.0,0.0,78,0.00,,,-99.99,pyweather 0.1,2013-02-19 13:16:00,
2013-02-19 05:24:00,37.9,31.7,0.00,North,0,0.0,0.0,78,0.00,,,-99.99,pyweather 0.1,2013-02-19 13:24:00,
2013-02-19 05:32:00,37.9,32.0,0.00,North,0,0.0,0.0,79,0.00,,,-99.99,pyweather 0.1,2013-02-19 13:32:00,
2013-02-19 05:40:00,38.1,32.2,0.00,North,0,0.0,0.0,79,0.00,,,-99.99,pyweather 0.1,2013-02-19 13:40:00,
2013-02-19 05:48:00,38.1,32.2,0.00,North,0,0.0,0.0,79,0.00,,,-99.99,pyweather 0.1,2013-02-19 13:48:00,
2013-02-19 05:56:00,38.1,32.2,0.00,North,0,0.0,0.0,79,0.00,,,-99.99,pyweather 0.1,2013-02-19 13:56:00,
2013-02-19 06:04:00,38.1,32.5,0.00,North,0,0.0,0.0,80,0.00,,,-99.99,pyweather 0.1,2013-02-19 14:04:00,
2013-02-19 06:12:00,38.3,32.7,0.00,North,0,0.0,0.0,80,0.00,,,-99.99,pyweather 0.1,2013-02-19 14:12:00,
2013-02-19 06:20:00,38.3,32.7,0.00,North,0,0.0,0.0,80,0.00,,,-99.99,pyweather 0.1,2013-02-19 14:20:00,
2013-02-19 06:28:00,38.5,32.9,0.00,North,0,0.0,0.0,80,0.00,,,-99.99,pyweather 0.1,2013-02-19 14:28:00,
2013-02-19 06:36:00,38.5,33.2,0.00,North,0,0.0,0.0,81,0.00,,,-99.99,pyweather 0.1,2013-02-19 14:36:00,
2013-02-19 06:44:00,38.5,33.2,0.00,North,0,0.0,0.0,81,0.00,,,-99.99,pyweather 0.1,2013-02-19 14:44:00,
2013-02-19 06:52:00,38.5,33.2,0.00,North,0,0.0,0.0,81,0.00,,,-99.99,pyweather 0.1,2013-02-19 14:52:00,
2013-02-19 07:00:00,38.5,33.2,0.00,North,0,0.0,0.0,81,0.00,,,-99.99,pyweather 0.1,2013-02-19 15:00:00,
2013-02-19 07:08:00,38.5,33.2,0.00,North,0,0.0,0.0,81,0.00,,,-99.99,pyweather 0.1,2013-02-19 15:08:00,
2013-02-19 07:16:00,38.5,33.2,0.00,North,0,0.0,0.0,81,0.00,,,-99.99,pyweather 0.1,2013-02-19 15:16:00,
2013-02-19 07:24:00,38.7,33.7,0.00,North,0,0.0,0.0,82,0.00,,,-99.99,pyweather 0.1,2013-02-19 15:24:00,
2013-02-19 07:32:00,38.7,33.7,0.00,North,0,0.0,0.0,82,0.00,,,-99.99,pyweather 0.1,2013-02-19 15:32:00,
2013-02-19 07:40:00,38.8,33.8,0.00,North,0,0.0,0.0,82,0.00,,,-99.99,pyweather 0.1,2013-02-19 15:40:00,
2013-02-19 07:48:00,39.0,34.3,0.00,North,0,0.0,0.0,83,0.00,,,-99.99,pyweather 0.1,2013-02-19 15:48:00,
2013-02-19 07:56:00,39.4,34.7,0.00,North,0,0.0,0.0,83,0.00,,,-99.99,pyweather 0.1,2013-02-19 15:56:00,
2013-02-19 08:04:00,39.9,35.2,0.00,North,0,0.0,0.0,83,0.00,,,-99.99,pyweather 0.1,2013-02-19 16:04:00,
2013-02-19 08:12:00,40.6,35.9,0.00,North,0,0.0,0.0,83,0.00,,,-99.99,pyweather 0.1,2013-02-19 16:12:00,
2013-02-19 08:20:00,41.2,35.5,0.00,North,0,0.0,0.0,80,0.00,,,-99.99,pyweather 0.1,2013-02-19 16:20:00,
2013-02-19 08:28:00,41.5,34.2,0.00,North,0,0.0,0.0,75,0.00,,,-99.99,pyweather 0.1,2013-02-19 16:28:00,
2013-02-19 08:36:00,42.1,33.4,0.00,North,0,0.0,0.0,71,0.00,,,-99.99,pyweather 0.1,2013-02-19 16:36:00,
2013-02-19 08:44:00,42.4,31.9,0.00,North,0,0.0,0.0,66,0.00,,,-99.99,pyweather 0.1,2013-02-19 16:44:00,
2013-02-19 08:52:00,42.8,31.1,0.00,North,0,0.0,0.0,63,0.00,,,-99.99,pyweather 0.1,2013-02-19 16:52:00,
2013-02-19 09:00:00,42.8,30.3,0.00,North,0,0.0,0.0,61,0.00,,,-99.99,pyweather 0.1,2013-02-19 17:00:00,
2013-02-19 09:08:00,43.0,27.5,0.00,North,0,0.0,0.0,54,0.00,,,-99.99,pyweather 0.1,2013-02-19 17:08:00,
2013-02-19 09:16:00,43.5,29.3,0.00,North,0,0.0,0.0,57,0.00,,,-99.99,pyweather 0.1,2013-02-19 17:16:00,
2013-02-19 09:24:00,43.7,29.9,0.00,North,0,0.0,0.0,58,0.00,,,-99.99,pyweather 0.1,2013-02-19 17:24:00,
2013-02-19 09:32:00,43.7,29.0,0.00,North,0,0.0,0.0,56,0.00,,,-99.99,pyweather 0.1,2013-02-19 17:32:00,
2013-02-19 09:40:00,44.1,29.8,0.00,North,0,0.0,0.0,57,0.00,,,-99.99,pyweather 0.1,2013-02-19 17:40:00,
2013-02-19 09:48:00,44.1,30.2,0.00,North,0,0.0,0.0,58,0.00,,,-99.99,pyweather 0.1,2013-02-19 17:48:00,
2013-02-19 09:56:00,44.2,30.4,0.00,North,0,0.0,0.0,58,0.00,,,-99.99,pyweather 0.1,2013-02-19 17:56:00,
2013-02-19 10:04:00,44.6,30.8,0.00,North,0,0.0,0.0,58,0.00,,,-99.99,pyweather 0.1,2013-02-19 18:04:00,
2013-02-19 10:12:00,45.0,31.5,0.00,North,0,0.0,0.0,59,0.00,,,-99.99,pyweather 0.1,2013-02-19 18:12:00,
2013-02-19 10:20:00,45.1,30.4,0.00,North,0,0.0,0.0,56,0.00,,,-99.99,pyweather 0.1,2013-02-19 18:20:00,
2013-02-19 10:28:00,45.3,29.7,0.00,North,0,0.0,0.0,54,0.00,,,-99.99,pyweather 0.1,2013-02-19 18:28:00,
2013-02-19 10:36:00,45.9,28.3,0.00,North,0,0.0,0.0,50,0.00,,,-99.99,pyweather 0.1,2013-02-19 18:36:00,
2013-02-19 10:44:00,46.4,28.3,0.00,North,0,0.0,0.0,49,0.00,,,-99.99,pyweather 0.1,2013-02-19 18:44:00,
2013-02-19 10:53:00,47.1,28.5,0.00,North,0,0.0,0.0,48,0.00,,,-99.99,pyweather 0.1,2013-02-19 18:53:00,
2013-02-19 11:01:00,47.3,27.6,0.00,North,0,0.0,0.0,46,0.00,,,-99.99,pyweather 0.1,2013-02-19 19:01:00,
2013-02-19 11:09:00,47.5,28.3,0.00,North,0,0.0,0.0,47,0.00,,,-99.99,pyweather 0.1,2013-02-19 19:09:00,
2013-02-19 11:17:00,47.7,28.4,0.00,North,0,0.0,0.0,47,0.00,,,-99.99,pyweather 0.1,2013-02-19 19:17:00,
2013-02-19 11:25:00,47.7,28.4,0.00,North,0,0.0,0.0,47,0.00,,,-99.99,pyweather 0.1,2013-02-19 19:25:00,
2013-02-19 11:33:00,47.8,28.1,0.00,North,0,0.0,0.0,46,0.00,,,-99.99,pyweather 0.1,2013-02-19 19:33:00,
2013-02-19 11:41:00,48.0,28.8,0.00,North,0,0.0,0.0,47,0.00,,,-99.99,pyweather 0.1,2013-02-19 19:41:00,
2013-02-19 11:49:00,48.4,29.1,0.00,North,0,0.0,0.0,47,0.00,,,-99.99,pyweather 0.1,2013-02-19 19:49:00,
2013-02-19 11:57:00,48.2,27.9,0.00,North,0,0.0,0.0,45,0.00,,,-99.99,pyweather 0.1,2013-02-19 19:57:00,
2013-02-19 12:05:00,47.8,27.0,0.00,North,0,0.0,0.0,44,0.00,,,-99.99,pyweather 0.1,2013-02-19 20:05:00,
2013-02-19 12:13:00,48.0,27.7,0.00,North,0,0.0,0.0,45,0.00,,,-99.99,pyweather 0.1,2013-02-19 20:13:00,
2013-02-19 12:21:00,48.2,27.9,0.00,North,0,0.0,0.0,45,0.00,,,-99.99,pyweather 0.1,2013-02-19 20:21:00,
2013-02-19 12:29:00,48.0,27.7,0.00,North,0,0.0,0.0,45,0.00,,,-99.99,pyweather 0.1,2013-02-19 20:29:00,
2013-02-19 12:37:00,48.2,26.2,0.00,North,0,0.0,0.0,42,0.00,,,-99.99,pyweather 0.1,2013-02-19 20:37:00,
2013-02-19 12:45:00,48.4,26.4,0.00,North,0,0.0,0.0,42,0.00,,,-99.99,pyweather 0.1,2013-02-19 20:45:00,
2013-02-19 12:53:00,48.6,26.5,0.00,North,0,0.0,0.0,42,0.00,,,-99.99,pyweather 0.1,2013-02-19 20:53:00,
2013-02-19 13:01:00,49.3,27.2,0.00,North,0,0.0,0.0,42,0.00,,,-99.99,pyweather 0.1,2013-02-19 21:01:00,
2013-02-19 13:09:00,49.3,26.0,0.00,North,0,0.0,0.0,40,0.00,,,-99.99,pyweather 0.1,2013-02-19 21:09:00,
2013-02-19 13:17:00,49.1,26.4,0.00,North,0,0.0,0.0,41,0.00,,,-99.99,pyweather 0.1,2013-02-19 21:17:00,
2013-02-19 13:25:00,49.1,26.4,0.00,North,0,0.0,0.0,41,0.00,,,-99.99,pyweather 0.1,2013-02-19 21:25:00,
2013-02-19 13:33:00,49.1,26.4,0.00,North,0,0.0,0.0,41,0.00,,,-99.99,pyweather 0.1,2013-02-19 21:33:00,
2013-02-19 13:41:00,49.1,26.4,0.00,North,0,0.0,0.0,41,0.00,,,-99.99,pyweather 0.1,2013-02-19 21:41:00,
2013-02-19 13:49:00,49.3,27.2,0.00,North,0,0.0,0.0,42,0.00,,,-99.99,pyweather 0.1,2013-02-19 21:49:00,
2013-02-19 13:57:00,49.6,26.9,0.00,North,0,0.0,0.0,41,0.00,,,-99.99,pyweather 0.1,2013-02-19 21:57:00,
2013-02-19 14:05:00,50.2,26.8,0.00,North,0,0.0,0.0,40,0.00,,,-99.99,pyweather 0.1,2013-02-19 22:05:00,
2013-02-19 14:13:00,50.2,27.4,0.00,North,0,0.0,0.0,41,0.00,,,-99.99,pyweather 0.1,2013-02-19 22:13:00,
2013-02-19 14:21:00,50.2,28.6,0.00,North,0,0.0,0.0,43,0.00,,,-99.99,pyweather 0.1,2013-02-19 22:21:00,
2013-02-19 14:29:00,50.2,29.1,0.00,North,0,0.0,0.0,44,0.00,,,-99.99,pyweather 0.1,2013-02-19 22:29:00,
2013-02-19 14:37:00,50.7,29.6,0.00,North,0,0.0,0.0,44,0.00,,,-99.99,pyweather 0.1,2013-02-19 22:37:00,
2013-02-19 14:45:00,50.9,29.8,0.00,North,0,0.0,0.0,44,0.00,,,-99.99,pyweather 0.1,2013-02-19 22:45:00,
2013-02-19 14:53:00,50.7,29.1,0.00,North,0,0.0,0.0,43,0.00,,,-99.99,pyweather 0.1,2013-02-19 22:53:00,
2013-02-19 15:01:00,50.7,30.2,0.00,North,0,0.0,0.0,45,0.00,,,-99.99,pyweather 0.1,2013-02-19 23:01:00,
2013-02-19 15:09:00,50.9,28.6,0.00,North,0,0.0,0.0,42,0.00,,,-99.99,pyweather 0.1,2013-02-19 23:09:00,
2013-02-19 15:17:00,51.1,28.8,0.00,North,0,0.0,0.0,42,0.00,,,-99.99,pyweather 0.1,2013-02-19 23:17:00,
2013-02-19 15:25:00,50.9,28.6,0.00,North,0,0.0,0.0,42,0.00,,,-99.99,pyweather 0.1,2013-02-19 23:25:00,
2013-02-19 15:33:00,51.1,28.8,0.00,North,0,0.0,0.0,42,0.00,,,-99.99,pyweather 0.1,2013-02-19 23:33:00,
2013-02-19 15:41:00,51.3,29.5,0.00,North,0,0.0,0.0,43,0.00,,,-99.99,pyweather 0.1,2013-02-19 23:41:00,
2013-02-19 15:49:00,50.9,28.6,0.00,North,0,0.0,0.0,42,0.00,,,-99.99,pyweather 0.1,2013-02-19 23:49:00,
2013-02-19 15:57:00,49.6,28.1,0.00,North,0,0.0,0.0,43,0.00,,,-99.99,pyweather 0.1,2013-02-19 23:57:00,
2013-02-19 16:05:00,48.9,28.0,0.00,North,0,0.0,0.0,44,0.00,,,-99.99,pyweather 0.1,2013-02-20 00:05:00,
2013-02-19 16:13:00,48.4,28.6,0.00,North,0,0.0,0.0,46,0.00,,,-99.99,pyweather 0.1,2013-02-20 00:13:00,
2013-02-19 16:21:00,47.8,28.6,0.00,North,0,0.0,0.0,47,0.00,,,-99.99,pyweather 0.1,2013-02-20 00:21:00,
2013-02-19 16:29:00,47.7,29.0,0.00,North,0,0.0,0.0,48,0.00,,,-99.99,pyweather 0.1,2013-02-20 00:29:00,
2013-02-19 16:37:00,47.3,29.1,0.00,North,0,0.0,0.0,49,0.00,,,-99.99,pyweather 0.1,2013-02-20 00:37:00,
2013-02-19 16:45:00,46.9,29.3,0.00,North,0,0.0,0.0,50,0.00,,,-99.99,pyweather 0.1,2013-02-20 00:45:00,
2013-02-19 16:53:00,46.8,29.6,0.00,North,0,0.0,0.0,51,0.00,,,-99.99,pyweather 0.1,2013-02-20 00:53:00,
2013-02-19 17:01:00,46.4,29.3,0.00,North,0,0.0,0.0,51,0.00,,,-99.99,pyweather 0.1,2013-02-20 01:01:00,
2013-02-19 17:09:00,46.0,28.9,0.00,North,0,0.0,0.0,51,0.00,,,-99.99,pyweather 0.1,2013-02-20 01:09:00,
2013-02-19 17:17:00,45.9,28.8,0.00,North,0,0.0,0.0,51,0.00,,,-99.99,pyweather 0.1,2013-02-20 01:17:00,
2013-02-19 17:25:00,45.5,28.4,0.00,North,0,0.0,0.0,51,0.00,,,-99.99,pyweather 0.1,2013-02-20 01:25:00,
2013-02-19 17:33:00,45.1,28.6,0.00,North,0,0.0,0.0,52,0.00,,,-99.99,pyweather 0.1,2013-02-20 01:33:00,
2013-02-19 17:41:00,44.8,28.2,0.00,North,0,0.0,0.0,52,0.00,,,-99.99,pyweather 0.1,2013-02-20 01:41:00,
2013-02-19 17:49:00,44.2,28.2,0.00,North,0,0.0,0.0,53,0.00,,,-99.99,pyweather 0.1,2013-02-20 01:49:00,
2013-02-19 17:57:00,43.9,28.3,0.00,North,0,0.0,0.0,54,0.00,,,-99.99,pyweather 0.1,2013-02-20 01:57:00,
2013-02-19 18:05:00,43.5,28.4,0.00,North,0,0.0,0.0,55,0.00,,,-99.99,pyweather 0.1,2013-02-20 02:05:00,
2013-02-19 18:13:00,43.0,27.9,0.00,North,0,0.0,0.0,55,0.00,,,-99.99,pyweather 0.1,2013-02-20 02:13:00,
2013-02-19 18:21:00,42.6,28.5,0.00,North,0,0.0,0.0,57,0.00,,,-99.99,pyweather 0.1,2013-02-20 02:21:00,
2013-02-19 18:29:00,42.1,28.4,0.00,North,0,0.0,0.0,58,0.00,,,-99.99,pyweather 0.1,2013-02-20 02:29:00,
2013-02-19 18:37:00,41.9,28.6,0.00,North,0,0.0,0.0,59,0.00,,,-99.99,pyweather 0.1,2013-02-20 02:37:00,
2013-02-19 18:46:00,41.5,28.7,0.00,North,0,0.0,0.0,60,0.00,,,-99.99,pyweather 0.1,2013-02-20 02:46:00,
2013-02-19 18:54:00,41.2,28.8,0.00,North,0,0.0,0.0,61,0.00,,,-99.99,pyweather 0.1,2013-02-20 02:54:00,
2013-02-19 19:02:00,40.8,28.8,0.00,North,0,0.0,0.0,62,0.00,,,-99.99,pyweather 0.1,2013-02-20 03:02:00,
2013-02-19 19:10:00,40.6,28.6,0.00,North,0,0.0,0.0,62,0.00,,,-99.99,pyweather 0.1,2013-02-20 03:10:00,
2013-02-19 19:18:00,40.5,28.9,0.00,North,0,0.0,0.0,63,0.00,,,-99.99,pyweather 0.1,2013-02-20 03:18:00,
2013-02-19 19:26:00,40.3,29.1,0.00,North,0,0.0,0.0,64,0.00,,,-99.99,pyweather 0.1,2013-02-20 03:26:00,
2013-02-19 19:34:00,40.1,28.9,0.00,North,0,0.0,0.0,64,0.00,,,-99.99,pyweather 0.1,2013-02-20 03:34:00,
2013-02-19 19:42:00,39.6,28.8,0.00,North,0,0.0,0.0,65,0.00,,,-99.99,pyweather 0.1,2013-02-20 03:42:00,
2013-02-19 19:50:00,39.2,28.4,0.00,North,0,0.0,0.0,65,0.00,,,-99.99,pyweather 0.1,2013-02-20 03:50:00,
2013-02-19 19:58:00,38.8,28.5,0.00,North,0,0.0,0.0,66,0.00,,,-99.99,pyweather 0.1,2013-02-20 03:58:00,
2013-02-19 20:06:00,38.5,28.5,0.00,North,0,0.0,0.0,67,0.00,,,-99.99,pyweather 0.1,2013-02-20 04:06:00,
2013-02-19 20:14:00,38.3,28.3,0.00,North,0,0.0,0.0,67,0.00,,,-99.99,pyweather 0.1,2013-02-20 04:14:00,
2013-02-19 20:22:00,37.9,28.3,0.00,North,0,0.0,0.0,68,0.00,,,-99.99,pyweather 0.1,2013-02-20 04:22:00,
2013-02-19 20:30:00,37.8,28.2,0.00,North,0,0.0,0.0,68,0.00,,,-99.99,pyweather 0.1,2013-02-20 04:30:00,
2013-02-19 20:38:00,37.6,28.4,0.00,North,0,0.0,0.0,69,0.00,,,-99.99,pyweather 0.1,2013-02-20 04:38:00,
2013-02-19 20:46:00,37.4,28.2,0.00,North,0,0.0,0.0,69,0.00,,,-99.99,pyweather 0.1,2013-02-20 04:46:00,
2013-02-19 20:54:00,37.2,28.0,0.00,North,0,0.0,0.0,69,0.00,,,-99.99,pyweather 0.1,2013-02-20 04:54:00,
2013-02-19 21:02:00,37.0,28.2,0.00,North,0,0.0,0.0,70,0.00,,,-99.99,pyweather 0.1,2013-02-20 05:02:00,
2013-02-19 21:10:00,36.7,27.8,0.00,North,0,0.0,0.0,70,0.00,,,-99.99,pyweather 0.1,2013-02-20 05:10:00,
2013-02-19 21:18:00,36.7,28.2,0.00,North,0,0.0,0.0,71,0.00,,,-99.99,pyweather 0.1,2013-02-20 05:18:00,
2013-02-19 21:26:00,36.3,27.8,0.00,North,0,0.0,0.0,71,0.00,,,-99.99,pyweather 0.1,2013-02-20 05:26:00,
2013-02-19 21:34:00,36.3,27.8,0.00,North,0,0.0,0.0,71,0.00,,,-99.99,pyweather 0.1,2013-02-20 05:34:00,
2013-02-19 21:42:00,36.1,28.0,0.00,North,0,0.0,0.0,72,0.00,,,-99.99,pyweather 0.1,2013-02-20 05:42:00,
2013-02-19 21:50:00,36.3,28.2,0.00,North,0,0.0,0.0,72,0.00,,,-99.99,pyweather 0.1,2013-02-20 05:50:00,
2013-02-19 21:58:00,36.3,28.5,0.00,North,0,0.0,0.0,73,0.00,,,-99.99,pyweather 0.1,2013-02-20 05:58:00,
2013-02-19 22:06:00,36.3,28.5,0.00,North,0,0.0,0.0,73,0.00,,,-99.99,pyweather 0.1,2013-02-20 06:06:00,
2013-02-19 22:14:00,36.5,29.0,0.00,North,0,0.0,0.0,74,0.00,,,-99.99,pyweather 0.1,2013-02-20 06:14:00,
2013-02-19 22:22:00,36.7,29.2,0.00,North,0,0.0,0.0,74,0.00,,,-99.99,pyweather 0.1,2013-02-20 06:22:00,
2013-02-19 22:30:00,36.7,29.2,0.00,North,0,0.0,0.0,74,0.00,,,-99.99,pyweather 0.1,2013-02-20 06:30:00,
2013-02-19 22:38:00,36.3,28.8,0.00,North,0,0.0,0.0,74,0.00,,,-99.99,pyweather 0.1,2013-02-20 06:38:00,
2013-02-19 22:46:00,36.1,28.7,0.00,North,0,0.0,0.0,74,0.00,,,-99.99,pyweather 0.1,2013-02-20 06:46:00,
2013-02-19 22:54:00,36.1,29.0,0.00,North,0,0.0,0.0,75,0.00,,,-99.99,pyweather 0.1,2013-02-20 06:54:00,
2013-02-19 23:10:00,36.1,29.0,0.00,North,0,0.0,0.0,75,0.00,,,-99.99,pyweather 0.1,2013-02-20 07:10:00,
2013-02-19 23:18:00,36.3,29.2,0.00,North,0,0.0,0.0,75,0.00,,,-99.99,pyweather 0.1,2013-02-20 07:18:00,
2013-02-19 23:42:00,36.3,29.5,0.00,North,0,0.0,0.0,76,0.00,,,-99.99,pyweather 0.1,2013-02-20 07:42:00,
2013-02-19 23:50:00,36.3,29.5,0.00,North,0,0.0,0.0,76,0.00,,,-99.99,pyweather 0.1,2013-02-20 07:50:00,
2013-02-19 23:58:00,36.3,29.5,0.00,North,0,0.0,0.0,76,0.00,,,-99.99,pyweather 0.1,2013-02-20 07:58:00,